Temperature
18 17 17 17 16 16 17 17 16 15 14 13 12 12 12 12 12 12 12 12 12 11 11 11 10 10 9 9 8 8 8 7 7 8 8 9 9 9 9 9 8 8 8
16 16 16 15 15 15 15 15 15 14 13 13 12 12 12 12 12 12 12 11 11 11 11 10 10 9 9 8 7 7 7 7 6 6 6 6 7 7 7 7 7 6 6
17 16 15 15 14 14 14 14 14 13 13 13 12 12 12 12 12 12 11 11 11 11 10 9 9 8 8 7 7 6 6 6 6 5 4 3 2 2 4 4 5 4 4
16 15 14 14 14 13 13 13 13 13 13 12 12 12 13 12 12 12 11 11 10 10 9 9 8 8 7 6 6 6 6 6 6 5 4 3 2 1 1 2 3 3 3
15 15 14 14 14 13 13 13 13 12 12 12 13 13 12 12 12 11 11 10 10 9 9 8 8 7 6 6 5 5 5 5 5 4 3 3 2 1 -0 -1 -0 1 2
14 14 13 13 13 13 13 12 12 12 12 12 12 12 12 12 12 11 11 10 9 9 8 8 7 6 6 5 5 5 4 4 3 3 2 1 1 0 -1 -1 -1 -2 -1
13 13 13 13 13 12 12 12 12 12 12 12 12 12 12 12 11 11 10 9 9 8 8 7 6 6 5 4 4 4 4 3 3 2 2 1 0 -0 -1 -2 -2 -3 -2
12 13 13 13 13 12 12 12 12 12 12 12 12 12 11 11 10 10 9 8 8 7 7 6 6 5 4 4 3 3 3 3 2 2 1 1 -0 -1 -2 -2 -3 -4 -3
11 12 12 12 12 12 12 12 12 12 12 12 12 12 11 10 10 9 8 8 7 7 6 6 5 4 4 3 3 3 2 2 2 1 1 -0 -1 -2 -2 -3 -4 -5 -5
10 11 12 12 12 12 12 11 12 12 12 12 11 11 10 10 9 8 8 7 6 6 5 5 4 4 3 3 2 2 1 1 1 0 -1 -2 -3 -3 -4 -4 -5 -5 -6
10 11 12 12 12 12 11 11 11 12 12 11 11 10 10 9 8 7 7 6 6 5 5 4 3 3 2 2 1 1 1 0 -0 -1 -2 -3 -4 -5 -5 -5 -6 -6 -6
10 11 12 11 11 11 11 11 11 11 11 10 10 9 8 8 7 6 6 5 5 4 3 3 2 2 2 1 1 0 -0 -1 -2 -3 -4 -5 -5 -6 -6 -6 -6 -6 -6
10 11 11 11 11 11 10 10 10 10 9 9 9 8 7 7 6 5 5 4 4 3 3 2 2 1 1 1 -0 -1 -1 -2 -3 -4 -5 -5 -6 -6 -7 -7 -7 -7 -7
10 11 11 11 11 10 10 9 9 8 8 8 7 7 6 6 5 5 4 4 3 2 2 2 1 1 0 -0 -1 -1 -2 -3 -4 -5 -5 -6 -6 -7 -7 -7 -7 -7 -7
9 10 11 11 11 10 9 9 8 7 7 7 6 6 5 5 4 4 3 3 2 2 1 1 1 -0 -1 -1 -2 -3 -4 -4 -5 -5 -6 -6 -7 -7 -7 -7 -7 -8 -8
9 10 11 11 10 10 9 8 7 7 6 6 5 5 4 4 3 3 2 2 1 1 1 0 -0 -1 -1 -2 -3 -4 -5 -5 -6 -6 -6 -7 -7 -8 -8 -8 -8 -8 -8
10 10 11 11 10 9 9 8 7 6 5 5 4 4 3 3 2 2 1 1 1 0 -0 -1 -1 -2 -2 -3 -4 -5 -6 -6 -7 -7 -7 -8 -8 -8 -8 -8 -8 -8 -8
10 10 11 10 10 9 8 7 6 5 5 4 3 3 2 2 2 1 0 0 -0 -1 -1 -2 -2 -3 -3 -4 -5 -7 -7 -7 -7 -8 -8 -8 -8 -8 -8 -8 -8 -8 -8
11 11 11 10 9 8 7 6 5 4 4 3 2 2 2 1 1 0 -0 -1 -1 -1 -2 -2 -3 -3 -4 -5 -7 -8 -8 -8 -8 -8 -8 -8 -8 -8 -8 -8 -8 -9 -9
11 11 10 9 8 7 6 5 4 3 3 2 2 1 1 1 0 -0 -1 -1 -2 -2 -3 -3 -3 -4 -5 -7 -8 -8 -9 -9 -8 -8 -8 -8 -9 -8 -8 -9 -9 -10 -10
10 9 9 8 7 6 5 4 3 3 2 1 1 1 0 -0 -1 -1 -2 -2 -3 -3 -3 -3 -4 -5 -6 -8 -8 -9 -9 -8 -8 -9 -9 -9 -9 -9 -9 -10 -10 -11 -10
8 7 7 6 5 4 4 3 2 2 1 1 0 -0 -1 -1 -2 -2 -2 -3 -3 -3 -3 -4 -5 -6 -7 -8 -9 -9 -9 -8 -9 -9 -9 -9 -9 -10 -10 -11 -11 -11 -11
6 6 6 5 4 3 2 2 1 1 1 0 -0 -1 -1 -2 -3 -3 -3 -3 -3 -4 -5 -6 -7 -8 -8 -9 -9 -9 -9 -9 -9 -9 -9 -10 -10 -11 -11 -11 -11 -11 -11
5 5 5 4 3 2 1 1 0 0 -0 -1 -1 -2 -2 -3 -3 -3 -4 -4 -4 -5 -7 -8 -8 -9 -9 -9 -9 -9 -10 -10 -10 -10 -10 -11 -11 -11 -11 -11 -10 -11 -12
4 4 3 3 2 1 0 -0 -0 -1 -1 -2 -2 -3 -3 -3 -3 -4 -4 -5 -5 -7 -8 -9 -10 -10 -10 -10 -10 -10 -10 -10 -10 -11 -11 -11 -11 -11 -11 -11 -11 -11 -12
3 2 2 1 1 -0 -1 -1 -1 -2 -2 -2 -3 -3 -3 -3 -4 -4 -4 -5 -6 -7 -8 -9 -9 -10 -10 -10 -10 -10 -10 -11 -11 -12 -12 -12 -12 -12 -12 -12 -12 -12 -12
Wind_Speed
8 7 7 8 7 7 9 10 14 14 14 12 10 9 7 6 6 6 11 13 13 13 9 4 6 5 5 5 5 4 5 4 5 4 5 5 4 4 9 6 9 9 14
8 7 7 6 6 8 9 11 12 13 13 10 7 6 6 6 5 5 8 12 12 11 9 6 6 5 5 7 7 5 3 3 4 4 4 5 6 6 8 5 8 9 12
14 10 8 8 9 9 10 11 12 12 13 12 11 10 7 5 4 5 5 7 11 11 10 7 5 6 6 5 5 5 4 3 3 4 4 4 4 8 4 5 5 8 8
11 10 11 11 10 9 10 12 12 13 13 12 12 13 8 6 5 4 4 6 9 10 10 8 7 5 4 4 4 4 3 3 4 3 3 1 4 4 6 6 6 8 8
16 15 14 13 11 10 10 11 12 12 11 10 11 11 7 5 5 6 7 6 6 7 8 8 5 4 3 3 4 5 5 4 3 3 3 3 3 4 5 11 9 9 7
14 12 10 12 11 9 10 10 11 10 9 11 10 11 10 10 9 8 6 5 4 4 5 5 4 3 3 4 4 5 5 5 4 4 4 4 4 6 6 10 13 10 8
18 17 16 15 14 12 11 11 12 11 10 11 11 11 11 10 10 9 7 5 3 2 2 3 3 3 4 4 4 5 6 5 5 5 4 4 6 5 6 10 15 16 9
18 18 17 17 16 14 12 12 13 12 11 12 11 10 10 8 7 7 6 5 3 3 1 2 3 4 5 5 5 4 5 5 6 7 7 6 6 5 6 7 13 18 12
20 18 16 15 15 14 12 12 14 12 11 12 12 10 10 9 8 8 6 4 3 2 3 3 4 4 5 5 6 5 7 7 6 7 7 5 5 5 7 7 8 10 19
17 17 16 16 13 12 10 10 11 12 11 11 10 10 9 9 8 7 6 5 3 3 4 4 5 6 6 6 6 7 7 8 7 6 6 5 5 7 7 8 8 8 13
20 18 15 13 12 12 11 10 10 10 10 9 9 10 9 8 8 6 5 4 3 3 4 5 5 6 7 7 7 8 9 8 8 7 7 7 8 8 8 9 9 10 10
17 15 14 12 13 13 11 10 10 10 9 9 9 9 8 8 7 6 4 4 3 3 4 5 6 7 8 8 8 9 9 9 9 8 7 7 9 10 10 9 10 11 10
15 13 14 14 14 13 11 10 10 10 9 9 9 8 8 7 6 5 4 3 3 4 5 5 7 8 8 9 9 9 9 9 9 8 7 7 9 11 11 12 12 10 11
17 16 14 12 13 12 12 11 10 10 10 9 9 8 7 6 5 4 3 3 3 4 6 6 7 8 8 9 9 8 9 9 8 7 7 8 9 11 13 12 9 10 12
17 17 16 13 13 13 12 12 11 10 10 10 8 7 5 5 4 3 2 3 4 5 6 7 8 8 8 9 12 10 9 9 9 7 8 9 14 19 17 15 13 14 14
17 16 15 14 14 14 13 12 11 10 11 10 8 6 5 4 3 3 3 4 5 6 6 7 8 9 10 18 21 18 10 9 9 9 9 10 13 17 23 26 27 25 20
15 16 16 15 14 14 14 13 11 11 10 9 7 6 5 4 3 3 4 5 5 6 7 8 8 9 11 20 22 23 14 10 10 10 11 13 14 19 13 21 26 23 28
13 13 13 13 11 11 12 11 11 10 9 8 7 6 5 4 4 4 4 4 4 5 6 7 8 8 11 20 20 23 12 9 10 11 11 11 11 14 19 17 15 14 11
12 12 12 14 13 14 14 13 10 9 9 7 6 5 5 4 3 3 4 3 4 6 6 7 8 8 11 17 20 21 9 9 11 11 11 12 12 23 29 21 16 13 14
14 14 14 15 14 12 12 13 10 9 8 7 6 5 4 3 2 3 3 3 5 6 7 7 8 9 9 16 21 21 7 9 10 9 10 19 22 28 28 16 11 15 17
15 15 15 13 11 10 12 12 9 8 7 7 6 5 4 3 3 3 3 5 6 7 7 8 8 8 10 16 20 21 11 10 11 11 10 11 24 25 25 24 13 20 21
13 13 13 11 9 9 12 11 8 7 7 6 5 4 4 4 4 4 5 5 6 7 7 7 8 6 8 13 17 22 21 20 11 11 9 11 23 26 26 20 22 27 22
11 10 13 11 8 8 10 10 7 6 6 6 5 5 5 4 4 4 5 5 6 6 6 6 7 7 7 10 20 22 23 23 14 11 19 21 24 23 16 22 25 20 12
10 10 12 11 8 7 8 8 7 7 7 6 5 4 4 4 4 4 4 5 5 6 6 7 8 8 7 7 8 9 11 16 13 10 13 21 21 18 20 18 15 11 12
7 8 10 10 8 8 8 7 7 7 7 6 4 3 2 3 4 4 4 5 4 8 9 6 7 9 9 13 23 18 12 12 13 14 6 8 10 10 12 12 12 12 13
8 9 9 9 8 8 8 7 6 7 6 4 2 1 2 3 4 5 5 9 11 15 16 16 15 12 17 24 24 24 25 24 24 15 10 10 10 11 14 14 14 14 13
Wind_Direction
203 184 146 135 127 120 125 132 132 130 126 126 123 118 109 99 87 81 82 80 77 73 68 58 47 45 54 43 28 10 357 348 342 339 321 324 339 18 8 1 360 360 357
190 175 144 139 131 122 121 124 129 131 130 131 125 119 116 102 87 82 73 76 75 71 69 62 55 44 44 35 27 21 5 348 6 360 347 344 335 345 330 339 358 355 347
182 171 151 141 128 127 131 133 132 131 128 127 122 116 98 88 84 81 74 71 76 72 70 66 63 50 47 33 17 16 27 355 347 18 56 6 320 317 302 341 330 340 325
174 165 155 145 137 136 133 133 135 133 134 134 136 134 133 134 140 128 105 78 73 72 69 64 58 48 39 26 1 16 10 21 4 0 44 233 254 302 310 311 311 310 313
173 168 160 146 134 133 130 131 131 132 133 128 129 125 120 119 116 110 103 85 68 68 67 64 56 42 27 11 4 6 13 20 12 351 331 323 288 245 276 301 308 310 304
164 156 145 134 126 125 124 127 128 129 129 126 124 127 128 126 123 123 118 103 81 58 52 56 48 31 13 359 353 355 1 359 351 336 324 314 301 305 296 301 307 302 293
161 158 152 146 140 136 133 131 130 127 125 121 121 125 128 127 128 131 129 123 102 78 38 39 30 15 355 350 351 351 348 340 336 319 304 294 281 286 294 307 310 305 296
163 163 158 152 146 141 137 134 130 127 124 122 120 119 119 117 117 119 120 119 129 145 94 48 23 8 359 351 349 340 330 324 314 312 306 297 293 297 301 303 310 309 304
165 162 157 153 148 145 144 140 135 130 127 125 121 116 114 112 112 110 107 111 122 119 62 32 9 355 346 338 338 326 314 311 306 305 302 300 298 303 299 296 294 299 306
161 159 159 156 150 143 137 134 132 131 129 124 122 119 112 110 112 111 114 115 99 63 37 8 351 338 332 330 327 314 307 308 304 302 304 304 303 306 304 300 296 289 293
164 163 161 155 143 136 137 135 130 127 123 117 112 111 109 109 109 112 117 112 84 50 18 349 337 331 327 323 317 308 306 301 300 299 303 300 304 309 308 303 298 294 289
161 160 157 148 144 144 142 136 131 126 121 116 110 108 109 111 113 116 111 94 61 21 351 337 330 327 325 318 311 306 307 299 300 295 295 295 312 310 308 303 299 296 287
155 155 155 154 151 148 140 133 129 125 121 115 112 110 113 118 122 117 96 66 31 353 339 334 331 327 321 313 304 296 296 297 292 286 283 288 304 309 305 300 295 293 297
163 161 158 154 149 145 141 136 129 127 124 118 117 120 128 131 127 112 83 41 4 343 338 337 332 323 317 307 301 303 302 297 289 275 269 277 294 301 301 300 295 303 302
167 167 163 156 149 144 140 138 132 128 127 124 125 132 133 127 118 100 55 17 360 352 347 342 333 327 323 321 326 320 311 307 298 277 265 274 304 309 308 309 312 308 304
172 166 159 154 151 147 143 139 134 132 131 131 132 131 128 123 112 82 40 17 4 354 350 340 328 324 332 334 336 335 322 315 305 288 278 288 299 302 310 311 308 307 308
166 163 160 157 151 147 145 142 137 133 130 128 129 132 131 118 94 63 36 13 355 347 337 328 322 317 321 338 341 340 342 333 321 307 302 308 312 314 302 297 303 306 309
148 145 141 136 131 127 129 126 129 129 127 127 131 134 126 109 81 50 20 350 336 333 319 311 312 314 327 341 342 342 347 327 315 308 304 298 294 297 302 304 309 308 313
124 125 128 129 125 128 130 127 125 124 124 128 129 125 118 104 69 22 352 333 323 317 306 305 312 317 323 334 336 337 320 316 312 307 304 308 303 306 315 321 320 321 312
106 112 114 116 120 124 126 125 126 123 125 127 124 118 112 99 51 0 335 319 309 299 305 313 314 312 309 323 331 329 308 307 306 301 299 310 314 317 326 330 328 319 314
105 109 111 115 121 123 123 123 121 125 127 123 117 106 88 57 32 4 329 313 313 316 319 315 312 308 313 326 329 326 324 310 311 313 312 311 321 328 331 331 323 313 321
102 107 110 109 112 119 121 118 122 127 122 115 105 85 57 33 27 0 330 324 326 324 321 318 316 306 309 325 326 328 328 326 320 318 316 321 329 331 331 329 321 324 328
105 107 112 108 101 108 119 124 133 129 117 103 86 64 45 34 18 351 334 328 327 325 322 320 321 323 317 319 328 331 333 333 332 321 326 331 332 333 330 323 326 329 322
111 113 111 111 107 108 112 123 127 119 109 97 79 61 46 12 350 342 329 325 324 323 321 327 328 325 320 313 315 322 325 331 328 323 330 334 331 330 327 326 324 321 316
118 121 122 123 123 121 114 114 114 110 104 95 80 55 15 338 330 332 325 330 316 326 335 328 321 327 326 329 337 338 334 338 329 336 330 325 327 327 327 326 324 323 322
125 124 123 126 127 121 115 110 108 109 110 102 81 5 327 323 324 323 325 341 342 338 341 340 337 330 331 333 337 339 341 340 338 339 328 327 325 325 325 324 322 322 320
Height
1457 1459 1459 1460 1461 1462 1465 1468 1470 1472 1475 1479 1482 1484 1488 1491 1494 1495 1496 1497 1498 1498 1498 1496 1494 1492 1488 1485 1482 1479 1477 1473 1469 1465 1461 1460 1459 1457 1456 1454 1453 1450 1448
1453 1454 1455 1456 1458 1459 1462 1464 1467 1471 1474 1478 1481 1484 1487 1491 1494 1495 1495 1496 1496 1497 1496 1495 1492 1490 1487 1483 1480 1477 1474 1471 1467 1463 1459 1456 1453 1452 1452 1449 1447 1445 1443
1447 1449 1451 1454 1456 1458 1461 1464 1467 1471 1475 1478 1481 1483 1487 1490 1492 1494 1494 1495 1495 1495 1494 1492 1490 1488 1485 1481 1479 1475 1472 1469 1467 1464 1462 1459 1455 1448 1444 1442 1441 1439 1436
1443 1446 1448 1451 1454 1457 1461 1464 1468 1471 1475 1477 1479 1482 1485 1488 1491 1492 1493 1493 1493 1493 1492 1490 1488 1486 1483 1480 1477 1474 1471 1468 1465 1463 1462 1461 1458 1452 1442 1435 1434 1432 1429
1438 1442 1445 1447 1452 1456 1460 1464 1467 1471 1474 1477 1479 1483 1486 1488 1490 1491 1492 1492 1492 1491 1490 1488 1486 1483 1481 1478 1476 1473 1470 1467 1464 1461 1459 1456 1454 1451 1444 1433 1426 1424 1423
1434 1439 1444 1446 1450 1455 1459 1463 1466 1470 1473 1475 1479 1482 1484 1487 1488 1489 1490 1490 1490 1489 1488 1486 1483 1481 1478 1476 1473 1470 1468 1465 1462 1459 1455 1452 1448 1444 1438 1429 1421 1417 1415
1429 1435 1439 1443 1447 1452 1458 1462 1465 1468 1471 1474 1477 1481 1483 1485 1487 1487 1488 1488 1488 1487 1486 1484 1481 1478 1475 1473 1470 1467 1464 1461 1458 1454 1450 1447 1444 1439 1434 1426 1416 1408 1405
1425 1431 1435 1439 1444 1450 1456 1461 1464 1466 1470 1472 1475 1478 1481 1483 1484 1485 1485 1486 1485 1484 1483 1481 1478 1476 1473 1470 1466 1463 1460 1456 1453 1449 1445 1441 1438 1434 1429 1423 1415 1402 1394
1420 1427 1432 1437 1442 1449 1454 1459 1462 1465 1468 1471 1474 1476 1479 1481 1482 1483 1484 1484 1483 1482 1480 1478 1476 1473 1469 1466 1462 1459 1455 1451 1447 1443 1439 1435 1431 1427 1423 1418 1412 1405 1391
1418 1424 1431 1436 1442 1448 1453 1459 1462 1464 1467 1470 1472 1475 1477 1479 1480 1481 1482 1482 1481 1479 1477 1475 1472 1469 1466 1462 1458 1454 1450 1446 1442 1438 1433 1429 1425 1420 1414 1409 1404 1400 1393
1415 1422 1430 1436 1441 1447 1452 1457 1461 1463 1466 1468 1471 1473 1475 1477 1478 1479 1480 1479 1478 1476 1474 1471 1468 1465 1461 1457 1453 1449 1445 1440 1436 1432 1428 1423 1418 1412 1407 1401 1397 1393 1388
1415 1422 1429 1434 1440 1445 1450 1455 1459 1462 1464 1467 1469 1471 1473 1475 1477 1477 1477 1476 1475 1473 1470 1467 1464 1460 1456 1452 1448 1443 1439 1435 1430 1426 1422 1417 1412 1406 1400 1395 1391 1387 1382
1416 1422 1428 1433 1438 1443 1448 1453 1457 1460 1463 1465 1468 1470 1472 1474 1475 1475 1474 1473 1472 1469 1466 1463 1460 1456 1451 1447 1443 1439 1434 1429 1425 1421 1416 1411 1406 1399 1394 1390 1385 1380 1375
1414 1420 1425 1431 1436 1442 1447 1452 1455 1458 1461 1464 1466 1469 1471 1472 1473 1472 1472 1470 1468 1465 1463 1460 1456 1451 1447 1443 1438 1433 1428 1424 1419 1415 1411 1406 1400 1394 1389 1384 1380 1375 1368
1413 1417 1423 1429 1435 1440 1445 1450 1453 1457 1460 1463 1465 1468 1469 1470 1470 1470 1468 1466 1464 1462 1459 1456 1452 1447 1442 1438 1433 1427 1423 1418 1414 1409 1405 1400 1395 1390 1386 1381 1375 1369 1362
1410 1416 1421 1427 1433 1438 1443 1448 1452 1455 1458 1461 1464 1466 1467 1468 1468 1466 1465 1463 1461 1458 1455 1451 1447 1443 1438 1433 1427 1422 1417 1412 1408 1403 1398 1394 1389 1384 1380 1375 1370 1364 1357
1407 1413 1419 1425 1432 1438 1442 1447 1450 1454 1457 1459 1461 1463 1465 1465 1464 1463 1461 1460 1457 1455 1452 1448 1443 1438 1433 1427 1422 1417 1412 1406 1401 1397 1392 1387 1382 1378 1372 1366 1361 1356 1350
1407 1413 1419 1427 1433 1438 1443 1446 1450 1453 1455 1457 1459 1461 1462 1462 1461 1460 1458 1456 1454 1451 1447 1443 1438 1433 1427 1422 1416 1411 1405 1400 1395 1391 1386 1381 1375 1370 1365 1359 1352 1346 1340
1408 1414 1421 1427 1433 1438 1442 1446 1449 1451 1453 1456 1457 1459 1459 1459 1458 1457 1455 1453 1450 1447 1443 1438 1433 1427 1422 1416 1411 1406 1400 1395 1390 1386 1382 1377 1371 1365 1359 1352 1344 1337 1331
1410 1416 1423 1429 1433 1438 1442 1445 1447 1449 1452 1454 1456 1456 1456 1456 1455 1454 1452 1449 1446 1442 1438 1434 1429 1423 1417 1412 1408 1403 1397 1390 1385 1380 1375 1371 1365 1359 1353 1346 1338 1330 1323
1414 1420 1425 1430 1434 1438 1441 1443 1446 1448 1450 1452 1453 1454 1454 1454 1453 1451 1449 1446 1442 1438 1433 1429 1424 1419 1413 1408 1403 1399 1394 1388 1381 1375 1369 1364 1359 1353 1347 1341 1333 1326 1318
1418 1422 1426 1430 1434 1437 1440 1442 1445 1447 1449 1451 1451 1452 1452 1451 1450 1448 1445 1442 1437 1433 1427 1422 1418 1413 1409 1404 1399 1396 1391 1386 1379 1372 1365 1359 1354 1348 1341 1334 1327 1321 1313
1420 1424 1427 1430 1434 1437 1440 1442 1444 1446 1448 1449 1450 1450 1450 1449 1447 1444 1441 1437 1432 1427 1422 1417 1412 1407 1403 1400 1395 1391 1386 1380 1374 1367 1361 1355 1348 1341 1333 1327 1321 1314 1307
1422 1425 1429 1431 1434 1437 1440 1442 1444 1446 1447 1448 1448 1448 1447 1446 1444 1440 1436 1432 1427 1422 1418 1413 1408 1403 1399 1394 1390 1385 1379 1374 1368 1361 1354 1349 1342 1336 1329 1322 1316 1309 1304
1424 1427 1429 1432 1434 1437 1440 1442 1444 1445 1446 1446 1446 1445 1444 1443 1440 1437 1433 1428 1425 1421 1416 1411 1406 1400 1394 1391 1387 1381 1374 1368 1362 1356 1348 1342 1336 1329 1323 1317 1311 1306 1300
1424 1427 1430 1432 1435 1437 1439 1441 1443 1444 1444 1444 1444 1443 1441 1439 1436 1433 1430 1426 1423 1418 1413 1409 1404 1398 1393 1387 1382 1376 1370 1364 1358 1351 1345 1339 1333 1327 1320 1314 1308 1302 1296